#timestamp,LO_Frequency,Hit,StdDev 
1711054815.5,286046998.4,N
1711054835.3,286047000.8,N
1711054855.2,286046999.9,N
1711054875.9,286046998.6,N
1711054895.7,286046998.4,N
1711054915.6,286047001.1,N
1711054935.4,286047000.6,N
1711054955.2,286047001.0,N
1711054975.1,286046998.8,N
1711054976.0,286046998.8,N
1711054995.8,286046999.0,N
1711055015.7,286046996.6,Y
1711055035.5,286046998.8,P
1711055055.3,286046998.3,P
1711055075.2,286047000.9,N
1711055095.0,286047000.8,N
1711055095.9,286047000.8,N
1711055115.8,286046998.1,N
1711055135.6,286047000.7,N
1711055155.4,286047000.5,N
1711055175.3,286046998.7,N
1711055195.1,286046998.2,N
1711055215.8,286047000.5,N
1711055235.7,286046998.1,N
1711055255.5,286046999.0,N
1711055275.4,286046998.4,N
1711055295.2,286047001.1,N
1711055315.0,286047000.9,N
1711055315.9,286047000.9,N
1711055335.8,286047000.5,N
1711055355.6,286046998.2,N
1711055375.4,286047000.9,N
1711055395.3,286047001.0,N
1711055415.1,286047002.8,N
1711055435.9,286047002.8,N
1711055455.7,286047002.5,N
1711055475.5,286047004.2,N
1711055495.4,286047004.2,N
1711055515.2,286047003.4,N
1711055535.0,286047002.9,N
1711055535.9,286047002.9,N
1711055555.8,286047004.7,N
1711055575.6,286047003.2,N
1711055595.5,286047004.3,N
1711055615.3,286047002.9,N
1711055635.1,286047003.9,N
1711055655.9,286047001.3,N
1711055675.7,286047001.5,N
1711055695.5,286047002.0,N
1711055715.4,286047001.6,N
1711055735.2,286047001.7,N
1711055755.1,286047001.6,N
1711055756.0,286047001.6,N
1711055775.8,286047002.0,N
1711055795.6,286047001.9,N
1711055815.5,286047002.3,N
1711055835.3,286047001.6,N
1711055855.2,286047001.6,N
1711055875.9,286047001.6,N
1711055895.7,286047001.7,N
1711055915.6,286047004.0,Y
1711055935.4,286047000.5,P
1711055955.3,286047002.8,P
1711055975.1,286047000.5,N
1711055976.0,286047000.5,N
1711055995.8,286047001.0,N
1711056015.7,286047000.7,N
1711056035.5,286047001.1,N
1711056055.4,286046999.3,N
1711056075.2,286046997.0,Y
1711056095.0,286046993.4,P
1711056096.0,286046993.4,N
1711056115.8,286046993.8,N
1711056135.6,286046994.0,N
1711056155.5,286046993.9,N
1711056175.3,286046993.8,N
1711056195.1,286046996.1,N
1711056215.9,286046996.2,N
1711056235.7,286046995.8,N
1711056255.6,286046997.2,N
1711056275.4,286046997.6,N
1711056295.2,286046997.3,N
1711056315.1,286046997.2,N
1711056316.0,286046997.2,N
1711056335.8,286046997.2,N
1711056355.7,286046996.5,N
1711056375.5,286046998.4,N
1711056395.3,286046998.3,N
1711056415.2,286046998.6,N
1711056435.0,286047001.1,N
1711056435.9,286047001.1,N
1711056455.7,286046998.8,N
1711056475.6,286046999.1,N
1711056495.4,286046996.5,N
1711056515.3,286046999.1,N
1711056535.1,286046999.2,N
1711056555.9,286046999.5,N
1711056575.7,286046999.6,N
1711056595.5,286046998.8,N
1711056615.4,286046998.1,N
1711056635.2,286046998.6,N
1711056655.0,286046997.3,N
1711056655.9,286046997.3,N
1711056675.8,286046997.8,N
1711056695.6,286046997.7,N
1711056715.5,286046997.1,N
1711056735.3,286046997.8,N
1711056755.1,286046995.2,Y
1711056775.9,286046997.1,P
1711056795.7,286046994.9,P
1711056815.6,286046997.6,N
1711056835.4,286046998.0,N
1711056855.2,286046997.9,N
1711056875.1,286046998.0,N
1711056876.0,286046998.0,N
1711056895.8,286046997.6,N
1711056915.7,286046995.5,Y
1711056935.5,286046999.5,P
1711056955.3,286046998.7,N
1711056975.2,286046998.3,N
1711056995.0,286046998.6,N
1711056995.9,286046998.6,N
1711057015.8,286047001.2,N
1711057035.6,286046998.3,N
1711057055.4,286047001.0,N
1711057075.3,286046998.9,N
1711057095.1,286046999.5,N
1711057115.8,286046998.7,N
1711057135.7,286047000.8,N
1711057155.5,286047001.0,N
1711057175.4,286047001.2,N
1711057195.2,286047000.6,N
1711057215.0,286046998.3,N
1711057215.9,286046998.3,N
1711057235.8,286047001.1,N
1711057255.6,286046998.6,N
1711057275.5,286046999.4,N
1711057295.3,286046999.6,N
1711057315.1,286046997.0,N
1711057335.9,286046998.5,N
1711057355.7,286046997.0,N
1711057375.5,286046997.4,N
1711057395.4,286046997.6,N
1711057415.2,286046995.4,Y
1711057435.1,286046997.2,P
1711057436.0,286046997.2,P
1711057455.8,286046996.7,P
1711057475.7,286046996.6,Y
1711057495.5,286047000.6,P
1711057515.3,286047000.7,N
1711057535.2,286047001.1,N
1711057555.0,286047000.4,N
1711057555.9,286047000.4,N
1711057575.7,286046999.9,N
1711057595.6,286046999.9,N
1711057615.4,286047002.2,N
1711057635.3,286047002.0,N
1711057655.1,286047002.7,N
1711057675.8,286047002.0,N
1711057695.7,286047000.2,N
1711057715.5,286047000.2,N
1711057735.4,286046999.7,N
1711057755.2,286047000.1,N
1711057775.0,286046999.8,N
1711057775.9,286046999.8,N
1711057795.8,286047002.5,N
1711057815.6,286047004.4,Y
1711057835.5,286047001.9,P
1711057855.3,286047002.8,P
1711057875.1,286047002.3,N
1711057895.9,286047002.3,N
1711057915.7,286047000.2,N
1711057935.6,286047002.8,N
1711057955.4,286047001.9,N
1711057975.2,286047003.9,Y
1711057995.1,286047000.4,P
1711057996.0,286047011.9,P
1711058015.8,286047000.5,N
1711058035.7,286046998.2,N
1711058055.5,286047001.0,N
1711058075.3,286046998.4,N
1711058095.2,286046999.1,N
1711058115.9,286046999.5,N
1711058135.7,286046999.0,N
1711058155.6,286046999.4,N
1711058175.4,286046996.7,N
1711058195.3,286046997.7,N
1711058215.1,286046996.5,N
1711058216.0,286046996.5,N
1711058235.8,286046998.6,N
1711058255.7,286046999.1,N
1711058275.5,286046998.4,N
1711058295.4,286046999.2,N
1711058315.2,286046999.2,N
1711058335.0,286046999.4,N
1711058335.9,286046999.4,N
1711058355.8,286046999.5,N
1711058375.6,286046998.7,N
1711058395.4,286046999.2,N
